◎P/2004 TU12の軌道と予報位置です



  彗星と判明したこの天体ですが,雄踏の和久田俊一氏は,11月1日以来,

12日まで,ほぼ,毎夜,観測していました.氏のV光度で,もっとも明る

いものは,13.5等でした.秦野の浅見敦夫氏も,11月3日と4日の2夜,

観測していました.氏のV光度は,14等級でした.また,13日夜の観測が

上尾の門田健一氏から報告がありました.CCD全光度は,14.4等でした.

彗星は,過去,1988年12月1日,1994年3月26日,1999年7月18日に,そ

の近日点を通過していました.



    P/2004 TU12 (Siding Spring)

Epoch 2004 Nov. 11.0 TT = JDT 2453320.5  

T 2004 Nov. 10.28317 TT                                 Nakano

q   1.2276351            (2000.0)            P               Q

n   0.18516732     Peri.  356.36231     +0.88227189     -0.40357702

a   3.0485488      Node    31.25258     +0.44282700     +0.53691451

e   0.5973051      Incl.   27.84485     +0.15968891     +0.74084304

P   5.32

From 224 observations 1990-2004, mean residual 0".39.

Residuals in seconds of arc 

1990/                     041011 E12  0.3+  0.3-    041104 379  0.1-  0.7-  

900323 261  0.1+  0.2-    041011 428  0.1+  0.0     041104 379  0.4+  0.1-  

900323 261  0.1-  0.3-    041011 428  0.2+  0.0     041104 355  0.1+  0.1+  

2000/                     041011 428  0.0   0.2+    041104 379  0.6+  0.6-  

000315 704  0.6+  0.5+    041011 428  0.7-  0.1+    041104 355  0.3+  0.1+  

000315 704  0.1-  0.2+    041011 423  0.3-  0.0     041105 704  0.3-  0.0   

000315 704  0.3+  0.3+    041011 423  0.0   0.2+    041105 699  0.3-  0.3-  

000315 704  1.1-  1.2+    041011 423  0.0   0.2+    041105 704  0.0   0.1-  

000326 704  0.2+  0.1-    041011 423  0.1+  0.1+    041105 699  0.3-  0.6-  

000326 704  0.2-  0.5+    041011 423  0.1+  0.4+    041105 704  0.4-  0.4-  

000326 704  0.4+  0.1-    041011 E12  0.3+  0.2+    041105 704  0.1-  0.3-  

000326 704  0.2+  0.5+    041011 E12  0.0   0.1+    041105 699  0.1-  0.4-  

000410 699  0.4+  0.6+    041011 E12  0.4-  0.3-    041105 704  0.2-  0.3-  

000410 699  0.0   0.2-    041012 423  0.0   0.2+    041105 699  0.6-  0.6+  

000410 699  0.6-  0.3-    041012 423  0.1-  0.2+    041105 699  0.0   0.2-  

000410 699  0.7-  0.2-    041012 423  0.1+  0.2+    041105 699  0.7-  0.1-  

000430 704  0.3+  0.1-    041012 423  0.2-  0.1+    041105 699  0.0   0.2-  

000430 704  1.2+  1.4+    041012 423  0.6-  0.4-    041105 699  0.4-  0.2-  

000430 704  0.4+  0.3-    041012 423  0.0   0.1+    041106 670  0.2+  0.1+  

000430 704  1.3+  1.1+    041012 423  0.4+  0.3+    041106 670  0.2+  0.0   

2001/                     041012 I05  0.0   0.4+    041106 670  0.2+  0.0   

010323 608  0.4+  0.4-    041012 I05  0.0   0.3+    041106 379  0.3+  0.1+  

010323 608  1.0+  0.1+    041012 I05  0.1-  0.3+    041106 379  0.3+  0.1+  

010323 608  1.2+  0.6-    041015 423  0.1-  0.1+    041106 379  0.1-  0.0   

010414 608  0.8+  0.0     041015 423  0.2-  0.1-    041106 379  0.0   0.1+  

010414 608  1.1+  0.5+    041015 423  0.0   0.0     041106 379  0.1+  0.3-  

010414 608  1.4+  1.5+    041015 423  0.1-  0.1+    041106 379  0.5+  0.1-  

2002/                     041015 423  0.2+  0.1-    041106 938  0.1+  0.0   

020408 644  0.2+  0.1+    041018 452  0.1+  0.3+    041106 938  0.1+  0.2+  

020408 644  0.1+  1.0+    041018 452  0.2+  0.0     041106 938  0.0   0.2+  

020408 644  0.2+  0.3+    041018 452  0.1-  0.1+    041106 938  0.1+  0.2-  

020409 644  0.6+  0.5+    041018 452  0.1+  0.1-    041106 938  0.1+  0.0   

020409 644  0.1+  0.6+    041018 452  0.1+  0.0     041106 938  0.1+  0.1-  

020409 644  0.5+  0.8+    041023 423  0.1+  0.2-    041107 704  0.7-  0.2+  

020414 644  0.3+  0.4+    041023 423  0.1+  0.1-    041107 704  0.6-  0.9+  

020414 644  0.7+  0.7+    041023 423  0.0   0.1+    041107 704  0.7-  0.2+  

020414 644  0.4-  0.8+    041023 423  0.1+  0.2-    041107 704  0.4+  0.6+  

020509 644  0.4-  0.2+    041023 423  0.0   0.2-    041107 379  0.7-  0.5-  

020509 644  0.3+  0.8+    041030 952  0.1-  0.2-    041107 379  0.6-  0.6-  

020509 644  0.8+  0.4+    041030 952  0.3-  0.1+    041107 379  0.5-  0.1-  

020518 644  0.6-  0.0     041030 952  0.3-  0.3-    041107 379  0.3-  0.2-  

020518 644  0.3+  0.4+    041030 952  0.3-  0.1+    041108 379  0.3+  0.1+  

020518 644  0.1-  0.1+    041030 952  0.6-  0.3+    041108 379  0.2-  0.0   

2003/                     041030 952  0.4-  0.2-    041108 379  0.6+  0.1+  

030124 809 (1.4+  2.2+)   041030 952  0.4-  0.1+    041108 379  0.2+  0.0   

030124 809  0.8+  0.9+    041101 379  0.3+  0.2-    041108 379  0.1+  0.2-  

030124 809  0.5-  0.1-    041101 379  0.0   0.1-    041108 379  0.4+  0.0   

2004/                     041101 379  0.1-  0.4-    041108 379  0.4-  0.1+  

041010 E12  0.1+  0.1+    041101 379  0.4+  0.2-    041108 379  0.0   0.2-  

041010 E12  0.1-  0.1-    041101 379  0.4+  0.3-    041108 379  0.4+  0.1-  

041010 E12  0.1-  0.1+    041101 379  0.3+  0.2-    041109 379  0.2-  0.1+  

041010 E12  0.1-  0.1+    041101 379  0.2+  0.2-    041109 379  0.4-  0.4-  

041010 E12  0.1+  0.0     041102 379  0.4-  0.2-    041109 379  0.3-  0.4-  

041010 E12  0.0   0.2-    041102 379  0.4-  0.5-    041109 379  0.0   0.5-  

041010 E12  0.4+  0.2+    041102 379  0.2+  0.2+    041109 379  0.4-  0.2-  

041010 E12  0.2-  0.0     041102 379  0.1-  0.2-    041109 379  0.2+  0.2+  

041010 E12  0.0   0.1+    041102 379  0.0   0.0     041109 379  0.3+  0.1+  

041010 E12  0.1-  0.3+    041102 379  0.4-  0.2+    041111 704  0.0   1.0+  

041010 E12  0.2+  0.0     041102 379  0.2+  0.5-    041111 704  0.0   0.9+  

041010 E12  0.0   0.3+    041102 379  0.4-  0.2+    041111 704  0.2+  1.2+  

041010 I05  0.4-  0.0     041102 379  0.2-  0.2+    041111 704  0.5-  1.3+  

041010 I05  0.4-  0.1+    041103 423  0.0   0.1+    041111 704  0.2-  1.3+  

041010 I05  0.3-  0.1+    041103 423  0.0   0.1+    041112 I05  0.3+  0.1+  

041010 I05  0.3-  0.0     041103 423  0.0   0.0     041112 I05  0.1-  0.3+  

041010 I05  0.4-  0.1+    041103 423  0.0   0.1+    041112 I05  0.1+  0.0   

041010 I05  0.4-  0.3+    041103 423  0.0   0.0     041112 I05  0.2+  0.1+  

041011 808  0.0   0.7+    041103 423  0.0   0.0     041112 379  0.2-  0.4+  

041011 808  0.2-  0.0     041103 355  0.0   0.0     041112 379  0.6+  0.3-  

041011 808  0.2-  0.1+    041103 355  0.1-  0.0     041112 379  0.4+  0.0   

041011 808  0.2+  0.1+    041103 355  0.1+  0.4+    041112 379  0.0   0.1+  

041011 808 (0.5-  2.0+)   041103 355  0.0   0.0     041112 379  0.3+  0.7+  

041011 808  0.4-  0.8+    041104 379  0.5+  0.3-    041113 349  0.2-  0.0   

041011 808  0.3-  1.9+    041104 379  0.5+  0.2-    041113 349  0.2+  0.0   

041011 808  0.4+  0.9-    041104 379  0.6+  0.4-    041113 349  0.0   0.2+  

041011 808  0.3-  0.8+    041104 355  0.3+  0.0     041113 349  0.2-  0.2+  

041011 E12  0.2-  0.1+    041104 379  0.5+  0.5-    041113 349  0.1+  0.1+  

041011 E12  0.2+  0.1-    041104 379  0.5+  0.1-                            

041011 E12  0.2+  0.0     041104 355  0.2+  0.2+                            

 

Date/        TT  R.A.(2000) Decl.     Delta   r     Daily motion  Mag.  Moon Age

              h    h  m       。  ,                      ,  / PA 。  m1      。

2004 Nov. 10 12  22 50.21  -12 06.2   0.454  1.228    82.6 /   9  13.2  139  .06

          11 12  22 51.07  -10 44.7   0.457  1.228    82.0 /   9  13.2  125  .02

          12 12  22 51.98  -09 23.7   0.460  1.228    81.5 /  10  13.2  112  .00

          13 12  22 52.94  -08 03.5   0.463  1.228    80.8 /  11  13.2   98  .01

          14 12  22 53.93  -06 44.0   0.467  1.229    80.1 /  11  13.2   84  .05

          15 12  22 54.97  -05 25.4   0.471  1.229    79.3 /  12  13.3   70  .12

          16 12  22 56.05  -04 07.8   0.475  1.230    78.5 /  12  13.3   56  .20

          17 12  22 57.17  -02 51.0   0.479  1.231    77.7 /  13  13.3   43  .31

          18 12  22 58.32  -01 35.3   0.483  1.232    76.8 /  14  13.3   30  .42

          19 12  22 59.52  -00 20.6   0.488  1.233    75.9 /  14  13.4   18  .53

          20 12  23 00.75  +00 52.9   0.493  1.234    74.9 /  15  13.4   11  .64

          21 12  23 02.02  +02 05.4   0.498  1.235    73.9 /  15  13.4   15  .74

          22 12  23 03.32  +03 16.7   0.503  1.236    72.9 /  16  13.4   25  .82

          23 12  23 04.66  +04 26.8   0.509  1.238    71.9 /  17  13.5   36  .89

          24 12  23 06.04  +05 35.7   0.514  1.239    70.9 /  17  13.5   47  .95

          25 12  23 07.45  +06 43.4   0.520  1.241    69.9 /  18  13.5   58  .98

          26 12  23 08.89  +07 49.9   0.526  1.243    68.8 /  19  13.6   69 1.00

          27 12  23 10.37  +08 55.1   0.532  1.245    67.8 /  19  13.6   80 1.00

          28 12  23 11.88  +09 59.2   0.539  1.247    66.8 /  20  13.6   91  .97

          29 12  23 13.42  +11 02.0   0.545  1.249    65.8 /  21  13.6  101  .93

          30 12  23 15.00  +12 03.5   0.552  1.251    64.8 /  21  13.7  112  .88

     Dec.  1 12  23 16.60  +13 03.8   0.559  1.254    63.8 /  22  13.7  122  .81

           2 12  23 18.24  +14 03.0   0.566  1.256    62.8 /  23  13.8  131  .74

           3 12  23 19.92  +15 00.9   0.573  1.259    61.8 /  23  13.8  141  .65

           4 12  23 21.62  +15 57.6   0.580  1.261    60.9 /  24  13.8  149  .55

           5 12  23 23.36  +16 53.2   0.588  1.264    60.0 /  25  13.9  156  .45

           6 12  23 25.13  +17 47.6   0.595  1.267    59.1 /  26  13.9  158  .35

           7 12  23 26.93  +18 40.8   0.603  1.270    58.2 /  26  13.9  154  .26

           8 12  23 28.76  +19 33.0   0.611  1.273    57.4 /  27  14.0  146  .17

           9 12  23 30.62  +20 24.0   0.619  1.276    56.6 /  28  14.0  135  .09

          10 12  23 32.52  +21 13.9   0.627  1.279    55.8 /  29  14.1  124  .04

          11 12  23 34.45  +22 02.8   0.635  1.283    55.0 /  30  14.1  111  .01

          12 12  23 36.41  +22 50.7   0.643  1.286    54.3 /  30  14.1   98  .00

          13 12  23 38.40  +23 37.5   0.652  1.290    53.6 /  31  14.2   85  .03

          14 12  23 40.43  +24 23.4   0.660  1.293    52.9 /  32  14.2   73  .09

          15 12  23 42.48  +25 08.3   0.669  1.297    52.2 /  33  14.3   61  .17

          16 12  23 44.57  +25 52.2   0.678  1.301    51.6 /  33  14.3   50  .27

          17 12  23 46.69  +26 35.2   0.687  1.305    51.0 /  34  14.3   40  .37

          18 12  23 48.84  +27 17.2   0.695  1.309    50.4 /  35  14.4   32  .48

          19 12  23 51.02  +27 58.4   0.704  1.313    49.8 /  36  14.4   28  .58

          20 12  23 53.23  +28 38.8   0.714  1.317    49.2 /  37  14.5   29  .68

          21 12  23 55.48  +29 18.2   0.723  1.322    48.7 /  37  14.5   34  .77

          22 12  23 57.75  +29 56.9   0.732  1.326    48.2 /  38  14.5   41  .85

          23 12  00 00.06  +30 34.7   0.741  1.330    47.7 /  39  14.6   49  .91

          24 12  00 02.39  +31 11.7   0.751  1.335    47.2 /  40  14.6   58  .96

          25 12  00 04.76  +31 47.9   0.760  1.339    46.7 /  40  14.7   68  .99

          26 12  00 07.15  +32 23.4   0.770  1.344    46.3 /  41  14.7   77 1.00

          27 12  00 09.58  +32 58.1   0.780  1.349    45.9 /  42  14.8   87  .99

          28 12  00 12.04  +33 32.1   0.789  1.354    45.5 /  43  14.8   96  .97

          29 12  00 14.53  +34 05.4   0.799  1.358    45.1 /  44  14.8  106  .93

          30 12  00 17.04  +34 37.9   0.809  1.363    44.7 /  44  14.9  115  .87

          31 12  00 19.59  +35 09.8   0.819  1.368    44.4 /  45  14.9  124  .80

2005 Jan.  1 12  00 22.17  +35 41.0   0.829  1.373    44.0 /  46  15.0  132  .72

NAKANO

         **** Don't distribute anyone except personal use only ****

                (C) Copyright 2004 OAA/ComputingSection

write mail from CFAD0::NAKANO on 2004-11-14 04:57:05(JST).

 

戻ります。